Location: Gleizolles
(44.4833°N, 6.7667°E)
Time: 00:50:25
(UTC+00:00)

Courier 1B Rocket - Pass Details

Date: 04 July 2024
Orbit: 920 x 1201 km, 28.3° (Epoch: 23 July)

Event Time Altitude Azimuth Distance (km) Brightness Sun altitude
Rises 20:24:10 0° 212° (SSW) 3,659 7.9 -9.6°
Reaches altitude 10° 20:29:03 10° 181° (S) 2,657 6.9 -10.2°
Maximum altitude 20:30:57 11° 163° (SSE) 2,540 6.6 -10.4°
Enters shadow 20:31:34 11° 157° (SSE) 2,546 6.6 -10.5°
